Location: Newark
(39.7100°N, 90.2000°W)
Time: 06:40:51
(UTC+00:00)

Envisat - Visible Passes

Search period start: 28 February 2020 00:00
Search period end: 09 March 2020 00:00
Orbit: 764 x 766 km, 98.1° (Epoch: 27 February)

Date Brightness Start Highest point End Pass type
(mag) Time Alt. Az. Time Alt. Az. Time Alt. Az.
28 Feb 6.7 01:28:13 10° W 01:28:17 10° W 01:28:21 10° W visible
28 Feb 5.2 11:53:43 10° NE 11:58:13 31° E 12:02:40 10° SSE visible
29 Feb 5.6 00:47:03 10° SSW 00:51:07 24° W 00:55:12 10° NW visible
29 Feb 6.4 11:18:37 10° ENE 11:21:06 14° E 11:23:36 10° ESE visible
01 Mar 4.0 00:09:11 10° S 00:14:09 54° W 00:19:08 10° NNW visible
02 Mar 6.3 01:14:25 10° WSW 01:16:50 13° W 01:19:16 10° WNW visible
02 Mar 5.7 11:42:43 10° NE 11:46:50 24° E 11:50:55 10° SSE visible
03 Mar 5.2 00:35:18 10° SSW 00:39:44 30° W 00:44:13 10° NW visible
03 Mar 6.8 11:09:03 10° E 11:09:40 10° E 11:10:17 10° E visible
05 Mar 6.1 01:02:07 10° SW 01:05:25 17° W 01:08:44 10° NW visible
05 Mar 6.1 11:31:50 10° NE 11:35:27 19° E 11:39:01 10° SE visible
06 Mar 4.7 00:23:40 10° SSW 00:28:22 39° W 00:33:08 10° NNW visible
07 Mar 5.1 11:56:30 10° NNE 12:01:06 34° E 12:05:41 10° SSE visible
08 Mar 5.8 00:50:08 10° SW 00:54:01 22° W 00:57:56 10° NW visible
08 Mar 6.3 11:21:09 10° NE 11:24:01 15° E 11:26:53 10° SE visible
